User: anonymous   Login
Location: ????????
(56.0167°N, 38.0333°E)
Time: 03:06:22
(UTC+00:00)
Language:

Cosmos 1371 Rocket - Orbit

View from above orbital plane
View from above orbital plane
View from above satellite
View from above satellite

Ground track
Ground track

The orbit data is extracted from the following two-line orbital elements,

1 13242U 82051B   25194.49579409  .00000162  00000-0  63161-4 0  9996
2 13242  74.0446 341.1758 0024468 179.6506 180.4669 14.37179272256882
Epoch (UTC): 13 July 2025 11:53:56
Eccentricity: 0.0024468
inclination: 74.0446°
perigee height: 750 km
apogee height: 785 km
right ascension of ascending node: 341.1758°
argument of perigee: 179.6506°
revolutions per day: 14.37179272
mean anomaly at epoch: 180.4669°
orbit number at epoch: 25688

The dashed part of the orbit path shows where the satellite is in the earth's shadow,  

DLR